FW7071 Weather Reports


time (UTC)temp
C
wind
direction
speed
KPH
gust
KPH
rain 1hr
cm
rain 24hr
cm
rain mn
cm
humidity
%
barometer
mb
20260506202538 17 246 3.2 3.2 0.00 0.46 0.46 93 1008.9
20260506202034 17 211 9.7 11.3 0.00 0.46 0.46 93 1008.7
20260506201532 18 236 4.8 8.0 0.00 0.46 0.46 93 1008.7
20260506201028 17 229 4.8 4.8 0.00 0.46 0.46 94 1008.4
20260506200524 17 281 4.8 8.0 0.00 0.46 0.46 95 1008.8
20260506200021 17 247 4.8 4.8 0.00 0.46 0.46 95 1008.8
20260506195518 17 148 3.2 8.0 0.00 0.46 0.46 96 1009.0
20260506195014 17 227 8.0 11.3 0.00 0.46 0.46 96 1009.0
20260506194512 17 31 3.2 3.2 0.00 0.46 0.46 96 1009.0
20260506194008 17 15 1.6 3.2 0.00 0.46 0.46 97 1009.0
20260506193505 17 215 3.2 4.8 0.00 0.46 0.46 98 1008.9
20260506192956 16 210 4.8 12.9 0.00 0.46 0.46 99 1009.1
20260506192454 16 150 1.6 3.2 0.00 0.46 0.46 99 1009.0
20260506191949 16 220 0.0 1.6 0.00 0.46 0.46 99 1009.1
20260506191447 16 248 8.0 9.7 0.00 0.46 0.46 99 1009.3
20260506190942 16 269 8.0 11.3 0.00 0.46 0.46 99 1009.0
20260506190440 16 303 6.4 8.0 0.00 0.46 0.46 99 1009.1
20260506185936 16 239 6.4 8.0 0.00 0.46 0.46 99 1009.3
20260506185434 16 210 3.2 4.8 0.00 0.46 0.46 99 1009.3
20260506184931 16 297 0.0 1.6 0.00 0.46 0.46 99 1009.4
20260506184427 16 283 4.8 4.8 0.00 0.46 0.46 99 1009.3
20260506183925 15 242 4.8 8.0 0.00 0.46 0.46 99 1009.4
20260506183420 16 222 3.2 3.2 0.00 0.46 0.46 99 1009.6
20260506182918 16 202 4.8 8.0 0.00 0.46 0.46 99 1009.7
20260506182415 15 259 6.4 8.0 0.00 0.46 0.46 99 1009.6
20260506181912 16 265 6.4 9.7 0.00 0.46 0.46 99 1009.6
20260506181410 16 296 9.7 12.9 0.00 0.46 0.46 99 1009.8
20260506180906 16 168 3.2 4.8 0.00 0.46 0.46 99 1009.7
20260506180403 15 200 1.6 3.2 0.00 0.46 0.46 99 1009.8
20260506175900 15 232 4.8 4.8 0.00 0.46 0.46 99 1009.7
20260506175356 15 334 3.2 3.2 0.00 0.46 0.46 99 1009.7
20260506174853 15 206 4.8 8.0 0.00 0.46 0.46 99 1009.8
20260506174351 15 212 6.4 8.0 0.00 0.46 0.46 99 1009.8
20260506173848 15 215 4.8 4.8 0.00 0.46 0.46 99 1009.8
20260506173344 15 292 1.6 3.2 0.00 0.46 0.46 99 1009.7
20260506172842 15 254 4.8 4.8 0.00 0.46 0.46 99 1009.7
20260506172338 15 131 0.0 1.6 0.00 0.46 0.46 99 1009.7
20260506171836 15 205 1.6 3.2 0.00 0.46 0.46 99 1009.4
20260506171332 15 256 8.0 9.7 0.00 0.46 0.46 99 1009.9
20260506170825 15 243 6.4 9.7 0.00 0.46 0.46 99 1010.0
20260506170321 15 219 6.4 14.5 0.00 0.46 0.46 99 1010.1
20260506165820 15 291 3.2 8.0 0.00 0.46 0.46 99 1010.0
20260506165317 15 194 1.6 3.2 0.00 0.46 0.46 99 1009.8
20260506164813 15 324 4.8 4.8 0.00 0.46 0.46 99 1010.0
20260506164310 15 179 4.8 4.8 0.00 0.46 0.46 99 1009.9
20260506163807 15 194 11.3 17.7 0.00 0.46 0.46 99 1009.6
20260506163302 15 204 4.8 9.7 0.00 0.46 0.46 99 1009.8
20260506162758 16 137 4.8 8.0 0.00 0.46 0.46 99 1009.7
20260506162256 15 228 11.3 16.1 0.00 0.46 0.46 99 1009.3
20260506161753 15 200 1.6 1.6 0.13 0.46 0.46 99 1009.4
20260506161250 15 167 8.0 11.3 0.00 0.43 0.43 99 1009.7
20260506160748 15 247 4.8 8.0 0.00 0.43 0.43 99 1009.9
20260506160244 15 242 8.0 11.3 0.00 0.43 0.43 99 1010.3
20260506155743 15 212 9.7 11.3 0.18 0.43 0.43 99 1010.7
20260506155239 15 183 0.0 0.0 0.30 0.43 0.43 99 1010.8
20260506153352 15 193 0.0 1.6 0.30 0.36 0.36 99 1010.6
20260506152849 15 235 3.2 3.2 0.30 0.33 0.33 99 1011.2
20260506152346 15 200 1.6 1.6 0.30 0.30 0.30 99 1011.3
20260506151845 15 267 1.6 3.2 0.36 0.28 0.28 99 1011.1
20260506151341 15 206 3.2 3.2 0.30 0.25 0.25 99 1011.2
20260506150839 15 209 3.2 3.2 0.13 0.23 0.23 99 1011.1
20260506150335 15 295 8.0 12.9 0.18 0.20 0.20 99 1011.2
20260506145832 15 192 4.8 8.0 0.18 0.20 0.20 99 1011.1
20260506145328 15 277 1.6 3.2 0.13 0.18 0.18 98 1011.0
20260506144826 16 228 8.0 9.7 0.13 0.18 0.18 98 1010.9
20260506144322 16 262 8.0 9.7 0.18 0.15 0.15 97 1010.8
20260506143821 16 178 1.6 1.6 0.30 0.15 0.15 97 1010.9
20260506143317 16 278 4.8 8.0 0.30 0.13 0.13 97 1010.9
20260506142816 16 293 6.4 11.3 0.30 0.10 0.10 96 1010.9
20260506142314 16 103 1.6 1.6 0.30 0.08 0.08 95 1010.8
20260506141812 16 220 8.0 8.0 0.30 0.05 0.05 93 1011.0
20260506141310 16 265 1.6 3.2 0.13 0.03 0.03 92 1011.2
20260506140807 17 99 4.8 8.0 0.00 0.00 0.00 91 1011.1
20260506140304 17 265 3.2 3.2 0.00 0.00 0.00 90 1010.9
20260506135801 17 278 4.8 8.0 0.00 0.00 0.00 89 1010.8
20260506135256 17 237 9.7 17.7 0.00 0.00 0.00 88 1010.8
20260506134754 17 202 4.8 4.8 0.00 0.00 0.00 87 1010.7
20260506134250 18 269 4.8 4.8 0.00 0.00 0.00 86 1010.7
20260506133747 17 256 6.4 8.0 0.00 0.00 0.00 86 1010.6
20260506133244 17 229 11.3 14.5 0.00 0.00 0.00 86 1010.9
20260506132741 17 246 1.6 3.2 0.00 0.00 0.00 87 1010.9
20260506132238 17 224 8.0 11.3 0.00 0.00 0.00 86 1011.0
20260506131736 17 251 6.4 9.7 0.00 0.00 0.00 86 1011.0
20260506131232 17 210 4.8 9.7 0.00 0.00 0.00 85 1011.0
20260506130729 17 268 0.0 1.6 0.00 0.00 0.00 85 1011.0
20260506130226 17 236 11.3 14.5 0.00 0.00 0.00 84 1011.1
20260506125724 18 246 4.8 4.8 0.00 0.00 0.00 84 1011.1
20260506125222 18 261 3.2 3.2 0.00 0.00 0.00 84 1011.2
20260506124719 18 23 8.0 11.3 0.00 0.00 0.00 83 1011.0
20260506124217 18 223 4.8 4.8 0.00 0.00 0.00 82 1011.3
20260506123714 18 239 6.4 11.3 0.00 0.00 0.00 81 1011.1
20260506123213 18 217 4.8 4.8 0.00 0.00 0.00 81 1011.3
20260506122709 18 237 3.2 4.8 0.00 0.00 0.00 81 1011.1
20260506122207 18 252 4.8 8.0 0.00 0.00 0.00 81 1011.2
20260506121704 18 223 6.4 8.0 0.00 0.00 0.00 81 1011.1
20260506121200 18 337 6.4 9.7 0.00 0.00 0.00 81 1010.8
20260506120658 18 298 4.8 4.8 0.00 0.00 0.00 81 1010.7
20260506120155 18 295 3.2 3.2 0.00 0.00 0.00 81 1010.9
20260506115654 18 184 3.2 4.8 0.00 0.00 0.00 81 1010.9
20260506115152 18 67 1.6 3.2 0.00 0.00 0.00 81 1010.8
20260506114649 18 249 4.8 9.7 0.00 0.00 0.00 81 1010.8
20260506114147 18 190 1.6 3.2 0.00 0.00 0.00 81 1011.0
20260506113645 18 232 0.0 1.6 0.00 0.00 0.00 81 1010.8
20260506113142 18 74 1.6 3.2 0.00 0.00 0.00 81 1010.7
20260506112638 18 244 8.0 11.3 0.00 0.00 0.00 81 1010.5
20260506112136 18 252 6.4 9.7 0.00 0.00 0.00 81 1010.8
20260506111633 18 136 1.6 1.6 0.00 0.00 0.00 81 1010.6
20260506111131 18 209 6.4 8.0 0.00 0.00 0.00 80 1010.7
20260506110628 18 232 3.2 4.8 0.00 0.00 0.00 80 1010.7
20260506110125 18 224 1.6 1.6 0.00 0.00 0.00 80 1010.9
20260506105622 18 212 4.8 8.0 0.00 0.00 0.00 80 1010.8
20260506105119 18 289 4.8 9.7 0.00 0.00 0.00 80 1010.5
20260506104617 18 122 1.6 3.2 0.00 0.00 0.00 80 1010.4
20260506104114 18 252 3.2 4.8 0.00 0.00 0.00 80 1010.5
20260506103611 18 128 4.8 4.8 0.00 0.00 0.00 79 1010.5
20260506103108 18 245 9.7 11.3 0.00 0.00 0.00 80 1010.3
20260506102606 18 238 4.8 9.7 0.00 0.00 0.00 79 1010.2
20260506102103 18 246 3.2 4.8 0.00 0.00 0.00 79 1010.5
20260506101600 18 121 1.6 1.6 0.00 0.00 0.00 80 1010.3
20260506101057 18 216 0.0 0.0 0.00 0.00 0.00 80 1010.3
20260506100555 18 241 4.8 4.8 0.00 0.00 0.00 80 1010.4
20260506100053 18 23 1.6 1.6 0.00 0.00 0.00 79 1010.3
20260506095551 18 225 1.6 4.8 0.00 0.00 0.00 80 1010.5
20260506095048 18 276 3.2 4.8 0.00 0.00 0.00 79 1010.6
20260506094545 18 225 3.2 3.2 0.00 0.00 0.00 79 1010.3
20260506094043 18 205 3.2 8.0 0.00 0.00 0.00 80 1010.4
20260506093541 18 237 1.6 3.2 0.00 0.00 0.00 79 1010.5
20260506093038 18 252 3.2 4.8 0.00 0.00 0.00 79 1010.1
20260506092536 18 162 0.0 0.0 0.00 0.00 0.00 79 1010.5
20260506092033 18 201 1.6 1.6 0.00 0.00 0.00 79 1010.2
20260506091531 18 110 0.0 1.6 0.00 0.00 0.00 79 1010.4
20260506091028 18 197 1.6 3.2 0.00 0.00 0.00 79 1010.4
20260506090526 18 233 1.6 1.6 0.00 0.00 0.00 79 1010.2
20260506090022 18 282 3.2 3.2 0.00 0.00 0.00 78 1010.4
20260506085519 18 145 0.0 1.6 0.00 0.00 0.00 78 1010.3
20260506085015 18 232 8.0 11.3 0.00 0.00 0.00 78 1010.4
20260506084512 18 159 0.0 0.0 0.00 0.00 0.00 77 1010.3
20260506084008 18 213 0.0 0.0 0.00 0.00 0.00 77 1010.3
20260506083506 19 297 1.6 1.6 0.00 0.00 0.00 77 1010.4
20260506083003 19 352 1.6 1.6 0.00 0.00 0.00 76 1010.3
20260506082500 19 231 8.0 9.7 0.00 0.00 0.00 76 1010.1
20260506081955 19 307 9.7 12.9 0.00 0.00 0.00 76 1010.3
20260506081454 19 154 0.0 0.0 0.00 0.00 0.00 76 1010.5
20260506080951 19 306 1.6 4.8 0.00 0.00 0.00 76 1010.4
20260506080448 19 186 4.8 8.0 0.00 0.00 0.00 76 1010.6
20260506073431 19 161 1.6 3.2 0.00 0.00 0.00 75 1010.6
20260506072929 19 53 1.6 3.2 0.00 0.00 0.00 74 1010.4
20260506072426 19 324 3.2 3.2 0.00 0.00 0.00 74 1010.7
20260506071924 19 241 6.4 11.3 0.00 0.00 0.00 74 1010.5
20260506071422 19 199 1.6 1.6 0.00 0.00 0.00 73 1010.8
20260506070918 19 241 6.4 9.7 0.00 0.00 0.00 73 1010.7
20260506070415 19 227 9.7 12.9 0.00 0.00 0.00 72 1011.0
20260506062353 19 219 3.2 4.8 0.00 0.00 0.00 70 1011.1
20260506061848 19 49 1.6 3.2 0.00 0.00 0.00 69 1011.3
20260506061345 19 100 0.0 0.0 0.00 0.00 0.00 69 1011.5
20260506060843 19 89 3.2 4.8 0.00 0.00 0.00 69 1011.2
20260506060341 19 108 1.6 1.6 0.00 0.00 0.00 70 1011.3
20260506051313 20 143 0.0 0.0 0.00 0.00 0.00 66 1011.7
20260506050811 20 140 1.6 3.2 0.00 0.00 0.00 66 1011.7
20260506050308 20 131 3.2 4.8 0.00 0.00 0.00 66 1011.7
20260506044758 20 112 0.0 1.6 0.00 0.00 0.00 66 1011.5
20260506044256 20 103 0.0 0.0 0.00 0.00 0.00 65 1011.7
20260506043753 20 302 0.0 1.6 0.00 0.00 0.00 65 1011.6
20260506043250 20 112 1.6 3.2 0.00 0.00 0.00 64 1011.9
20260506042749 20 119 1.6 3.2 0.00 0.00 0.00 64 1011.9
20260506042248 20 230 0.0 1.6 0.00 0.00 0.00 64 1011.7
20260506041746 20 20 1.6 1.6 0.00 0.00 0.00 63 1011.9
20260506041242 20 214 0.0 1.6 0.00 0.00 0.00 63 1011.7
20260506040739 20 248 1.6 3.2 0.00 0.00 0.00 64 1011.8
20260506040236 20 91 1.6 1.6 0.00 0.00 0.00 64 1011.7
20260506035733 20 225 3.2 9.7 0.00 0.00 0.00 63 1011.6
20260506035230 20 282 6.4 8.0 0.00 0.00 0.00 63 1011.4
20260506034727 20 72 1.6 3.2 0.00 0.00 0.00 63 1011.6
20260506034224 20 100 3.2 4.8 0.00 0.00 0.00 62 1011.6
20260506033721 21 120 0.0 0.0 0.00 0.00 0.00 61 1011.6
20260506033218 21 237 6.4 9.7 0.00 0.00 0.00 61 1011.3
20260506032715 21 234 3.2 3.2 0.00 0.00 0.00 61 1011.4
20260506032212 21 231 0.0 0.0 0.00 0.00 0.00 61 1011.3
20260506031709 21 265 3.2 3.2 0.00 0.00 0.00 61 1011.5
20260506031206 21 255 8.0 11.3 0.00 0.00 0.00 60 1011.4
20260506030704 21 269 4.8 4.8 0.00 0.00 0.00 60 1011.4
20260506030201 21 188 0.0 1.6 0.00 0.00 0.00 59 1011.4
20260506025658 21 170 4.8 4.8 0.00 0.00 0.00 59 1011.6
20260506025154 21 206 3.2 3.2 0.00 0.00 0.00 59 1011.5
20260506024652 21 230 8.0 9.7 0.00 0.00 0.00 59 1011.3
20260506024148 21 96 8.0 9.7 0.00 0.00 0.00 58 1011.4
20260506023644 21 194 3.2 3.2 0.00 0.00 0.00 58 1011.5
20260506023142 21 123 4.8 4.8 0.00 0.00 0.00 58 1011.5
20260506022639 21 158 0.0 0.0 0.00 0.00 0.00 57 1011.4
20260506022136 21 193 1.6 1.6 0.00 0.00 0.00 57 1011.7
20260506021634 22 174 1.6 1.6 0.00 0.00 0.00 56 1011.7
20260506021131 22 168 3.2 4.8 0.00 0.00 0.00 56 1011.4
20260506020628 22 216 3.2 3.2 0.00 0.00 0.00 55 1011.5
20260506020125 22 146 0.0 0.0 0.00 0.00 0.00 55 1011.7
20260506015623 22 294 6.4 11.3 0.00 0.00 0.00 55 1011.3
20260506015120 22 240 1.6 1.6 0.00 0.00 0.00 55 1011.3
20260506014617 22 234 8.0 11.3 0.00 0.00 0.00 54 1011.5
20260506014112 22 82 1.6 1.6 0.00 0.00 0.00 55 1011.5
20260506013611 22 297 1.6 3.2 0.00 0.00 0.00 53 1011.5
20260506013108 22 202 3.2 3.2 0.00 0.00 0.00 52 1011.4
20260506012604 22 284 4.8 4.8 0.00 0.00 0.00 52 1011.3
20260506012100 23 268 8.0 9.7 0.00 0.00 0.00 51 1011.3
20260506011558 23 322 1.6 4.8 0.00 0.00 0.00 51 1011.1
20260506011054 23 96 3.2 3.2 0.00 0.00 0.00 51 1010.9
20260506010553 23 180 1.6 3.2 0.00 0.00 0.00 50 1011.1
20260506010049 23 93 4.8 4.8 0.00 0.00 0.00 50 1011.0
20260506005547 23 138 0.0 0.0 0.00 0.00 0.00 50 1010.8
20260506005043 23 142 0.0 1.6 0.00 0.00 0.00 49 1011.0
20260506004541 23 305 3.2 3.2 0.00 0.00 0.00 49 1010.8
20260506004037 23 76 3.2 8.0 0.00 0.00 0.00 48 1010.7
20260506003533 23 210 6.4 9.7 0.00 0.00 0.00 47 1010.6
20260506003030 24 241 4.8 12.9 0.00 0.00 0.00 47 1010.6
20260506002526 24 259 4.8 8.0 0.00 0.00 0.00 47 1010.6
20260506002022 23 245 6.4 9.7 0.00 0.00 0.00 47 1010.7
20260506001518 24 294 4.8 4.8 0.00 0.00 0.00 47 1010.5
20260506001015 24 161 0.0 0.0 0.00 0.00 0.00 47 1010.5
20260506000513 24 273 3.2 3.2 0.00 0.00 0.00 47 1010.3
20260506000010 24 243 8.0 12.9 0.00 0.00 0.00 46 1010.3
20260505235508 24 237 1.6 1.6 0.00 0.00 0.00 46 1010.4
20260505235004 25 198 4.8 8.0 0.00 0.00 0.00 46 1010.5
20260505234502 25 202 4.8 8.0 0.00 0.00 0.00 45 1010.1
20260505233958 25 292 8.0 11.3 0.00 0.00 0.00 45 1010.3
20260505233456 25 300 1.6 1.6 0.00 0.00 0.00 45 1010.2
20260505232953 25 255 4.8 9.7 0.00 0.00 0.00 45 1010.4
20260505232451 25 148 6.4 9.7 0.00 0.00 0.00 45 1010.3
20260505231948 25 206 8.0 9.7 0.00 0.00 0.00 45 1010.2
20260505231445 25 212 3.2 4.8 0.00 0.00 0.00 45 1010.4
20260505230943 25 226 8.0 11.3 0.00 0.00 0.00 45 1010.2
20260505230441 25 241 6.4 9.7 0.00 0.00 0.00 45 1010.3
20260505225937 25 248 1.6 3.2 0.00 0.00 0.00 45 1010.2
20260505225434 25 307 11.3 14.5 0.00 0.00 0.00 44 1010.2
20260505224930 25 77 6.4 9.7 0.00 0.00 0.00 45 1010.0
20260505224427 25 221 1.6 4.8 0.00 0.00 0.00 45 1010.2
20260505223924 25 308 8.0 14.5 0.00 0.00 0.00 44 1010.1
20260505223421 26 238 3.2 9.7 0.00 0.00 0.00 44 1010.1
20260505222918 26 238 6.4 11.3 0.00 0.00 0.00 43 1009.9
20260505222414 26 265 6.4 14.5 0.00 0.00 0.00 44 1010.0
20260505221910 26 243 1.6 4.8 0.00 0.00 0.00 42 1010.2
20260505221408 26 181 1.6 1.6 0.00 0.00 0.00 43 1009.9
20260505220904 27 246 4.8 8.0 0.00 0.00 0.00 41 1009.9
20260505220401 27 306 8.0 11.3 0.00 0.00 0.00 42 1010.0
20260505215859 27 208 8.0 16.1 0.00 0.00 0.00 41 1010.0
20260505215357 27 188 12.9 16.1 0.00 0.00 0.00 40 1010.1
20260505214855 26 224 6.4 12.9 0.00 0.00 0.00 40 1009.9
20260505214352 26 181 8.0 17.7 0.00 0.00 0.00 42 1010.0
20260505213849 27 262 9.7 12.9 0.00 0.00 0.00 41 1010.2
20260505213347 27 158 8.0 14.5 0.00 0.00 0.00 40 1009.9
20260505212842 27 233 11.3 14.5 0.00 0.00 0.00 41 1009.9
20260505212340 27 228 11.3 17.7 0.00 0.00 0.00 41 1009.8
20260505211836 26 224 3.2 4.8 0.00 0.00 0.00 43 1009.7
20260505211334 26 228 11.3 12.9 0.00 0.00 0.00 42 1009.6
20260505210830 26 185 6.4 9.7 0.00 0.00 0.00 42 1009.8
20260505210327 26 260 4.8 8.0 0.00 0.00 0.00 41 1009.4
20260505205824 26 131 9.7 14.5 0.00 0.00 0.00 42 1009.8
20260505205322 26 115 11.3 20.9 0.00 0.00 0.00 42 1009.9
20260505204818 26 329 14.5 17.7 0.00 0.00 0.00 42 1010.0
20260505204317 26 277 3.2 4.8 0.00 0.00 0.00 42 1009.9
20260505203814 26 23 9.7 14.5 0.00 0.00 0.00 42 1010.0
20260505203310 26 118 4.8 4.8 0.00 0.00 0.00 42 1010.2
20260505202806 27 31 4.8 4.8 0.00 0.00 0.00 42 1009.9